CW2157 Weather Reports


time (UTC)temp
F
wind
direction
speed
knots
gust
knots
rain 1hr
in
rain 24hr
in
rain mn
in
humidity
%
barometer
mb
20260831110704 74 32 0.0 1.7 0.00 0.00 0.00 93 1016.8
20260831110204 74 32 0.0 0.0 0.00 0.00 0.00 93 1016.9
20260831105704 74 32 0.0 0.0 0.00 0.00 0.00 93 1016.7
20260831105204 74 32 0.0 0.9 0.00 0.00 0.00 93 1016.6
20260831104704 74 32 0.9 1.7 0.00 0.00 0.00 93 1016.6
20260831104204 74 32 0.9 1.7 0.00 0.00 0.00 93 1016.5
20260831103703 74 32 0.9 0.9 0.00 0.00 0.00 93 1016.5
20260831103204 74 32 0.9 1.7 0.00 0.00 0.00 93 1016.4
20260831102204 74 42 0.0 1.7 0.00 0.00 0.00 93 1016.3
20260831101204 75 42 0.9 1.7 0.00 0.00 0.00 93 1016.3
20260831100704 75 42 1.7 2.6 0.00 0.00 0.00 93 1016.3
20260831100204 75 352 0.0 0.9 0.00 0.00 0.00 93 1016.3
20260831095704 75 352 0.9 1.7 0.00 0.00 0.00 93 1016.2
20260831095204 75 352 0.0 0.0 0.00 0.00 0.00 93 1016.2
20260831094705 75 352 0.0 0.9 0.00 0.00 0.00 93 1016.2
20260831094205 75 352 0.0 0.0 0.00 0.00 0.00 93 1016.3
20260831093705 74 352 0.0 0.0 0.00 0.00 0.00 93 1016.4
20260831092705 74 352 0.0 0.0 0.00 0.00 0.00 93 1016.4
20260831092206 74 352 0.9 2.6 0.00 0.00 0.00 93 1016.5
20260831091705 75 354 1.7 2.6 0.00 0.00 0.00 93 1016.2
20260831091205 75 44 0.0 0.9 0.00 0.00 0.00 93 1016.1
20260831090705 75 15 0.0 0.9 0.00 0.00 0.00 93 1016.2
20260831090205 75 15 0.0 0.0 0.00 0.00 0.00 93 1016.3
20260831084705 75 15 0.0 1.7 0.00 0.00 0.00 92 1016.5
20260831084205 75 63 0.0 0.0 0.00 0.00 0.00 92 1016.3
20260831083706 75 63 0.0 0.0 0.00 0.00 0.00 92 1016.2
20260831083206 75 63 0.0 0.0 0.00 0.00 0.00 92 1016.2
20260831082705 75 63 0.0 0.0 0.00 0.00 0.00 92 1016.3
20260831082205 75 63 0.0 0.0 0.00 0.00 0.00 92 1016.4
20260831081705 75 63 0.0 0.0 0.00 0.00 0.00 92 1016.5
20260831081205 75 63 0.0 0.0 0.00 0.00 0.00 92 1016.5
20260831080705 75 63 0.0 0.0 0.00 0.00 0.00 92 1016.4
20260831080205 75 63 0.0 0.0 0.00 0.00 0.00 92 1016.5
20260831075705 75 63 0.0 0.0 0.00 0.00 0.00 92 1016.5
20260831075205 75 63 0.0 0.0 0.00 0.00 0.00 92 1016.6
20260831074705 75 63 0.0 0.0 0.00 0.00 0.00 92 1016.6
20260831074205 75 63 0.0 0.9 0.00 0.00 0.00 92 1016.6
20260831073705 75 63 0.0 0.9 0.00 0.00 0.00 92 1016.5
20260831073205 75 63 0.9 0.9 0.00 0.00 0.00 92 1016.6
20260831072705 75 63 0.0 0.9 0.00 0.00 0.00 92 1016.5
20260831072205 75 306 0.0 0.0 0.00 0.00 0.00 92 1016.5
20260831071705 75 306 0.0 0.0 0.00 0.00 0.00 92 1016.4
20260831071205 76 306 0.0 0.9 0.00 0.00 0.00 92 1016.4
20260831070705 75 306 0.0 0.0 0.00 0.00 0.00 92 1016.5
20260831070205 76 306 0.0 0.0 0.00 0.00 0.00 91 1016.6
20260831064705 76 306 0.0 0.0 0.00 0.00 0.00 92 1016.6
20260831064205 76 306 0.0 0.0 0.00 0.00 0.00 91 1016.6
20260831063205 76 306 0.0 0.0 0.00 0.00 0.00 91 1016.6
20260831061705 76 268 0.0 0.0 0.00 0.00 0.00 91 1016.7
20260831061205 76 262 0.0 0.9 0.00 0.00 0.00 91 1016.7
20260831060706 76 294 0.0 0.9 0.00 0.00 0.00 91 1016.7
20260831060205 76 260 0.0 0.9 0.00 0.00 0.00 91 1016.7
20260831055705 76 296 0.0 0.9 0.00 0.00 0.00 91 1016.7
20260831055205 76 297 0.0 0.9 0.00 0.00 0.00 91 1016.7
20260831054205 76 268 1.7 5.2 0.00 0.00 0.00 90 1016.7
20260831053705 76 242 4.3 6.1 0.00 0.00 0.00 91 1016.7
20260831053205 76 232 5.2 7.0 0.00 0.00 0.00 91 1016.6
20260831052705 76 233 5.2 7.8 0.00 0.00 0.00 90 1016.6
20260831052205 76 231 5.2 7.0 0.00 0.00 0.00 90 1016.7
20260831051205 76 233 5.2 7.8 0.00 0.00 0.00 90 1016.6
20260831050705 77 226 5.2 7.0 0.00 0.00 0.00 90 1016.7
20260831050205 77 235 5.2 6.1 0.00 0.00 0.00 89 1016.7
20260831045705 77 230 5.2 7.0 0.00 0.00 0.00 89 1016.8
20260831045206 77 229 5.2 7.0 0.00 0.00 0.00 89 1016.8
20260831044705 77 227 6.1 7.0 0.00 0.00 0.00 89 1016.9
20260831043705 77 233 6.1 7.8 0.00 0.00 0.00 89 1016.9
20260831041705 78 229 6.1 8.7 0.00 0.00 0.00 89 1017.1
20260831041205 78 234 5.2 7.8 0.00 0.00 0.00 89 1016.9
20260831040705 78 237 6.1 8.7 0.00 0.00 0.00 89 1017.0
20260831035705 78 228 5.2 8.7 0.00 0.00 0.00 88 1017.0
20260831035205 78 226 6.1 8.7 0.00 0.00 0.00 88 1017.0
20260831034705 79 340 7.8 10.4 0.00 0.00 0.00 88 1017.1
20260831034205 79 3 6.1 10.4 0.00 0.00 0.00 88 1017.1
20260831033705 79 201 6.1 10.4 0.00 0.00 0.00 88 1017.1
20260831033205 79 226 6.1 12.2 0.00 0.00 0.00 88 1017.1
20260831032705 79 243 6.1 8.7 0.00 0.00 0.00 87 1017.1
20260831032205 79 227 5.2 8.7 0.00 0.00 0.00 87 1017.2
20260831031705 79 235 7.8 10.4 0.00 0.00 0.00 87 1017.2
20260831031204 79 220 7.8 11.3 0.00 0.00 0.00 86 1017.2
20260831030704 80 211 8.7 11.3 0.00 0.00 0.00 86 1017.2
20260831030205 80 218 8.7 12.2 0.00 0.00 0.00 86 1017.2
20260831025705 80 236 7.0 11.3 0.00 0.00 0.00 86 1017.3
20260831025205 80 213 8.7 12.2 0.00 0.00 0.00 86 1017.1
20260831024705 80 224 7.0 11.3 0.00 0.00 0.00 86 1017.0
20260831024205 80 41 7.0 10.4 0.00 0.00 0.00 86 1017.1
20260831023705 80 301 6.1 7.8 0.00 0.00 0.00 86 1017.2
20260831022705 80 346 5.2 8.7 0.00 0.00 0.00 86 1017.5
20260831022205 81 184 5.2 8.7 0.00 0.00 0.00 86 1017.5
20260831021705 81 215 5.2 10.4 0.00 0.00 0.00 85 1017.5
20260831021205 81 177 6.1 10.4 0.00 0.00 0.00 85 1017.5
20260831020705 81 332 5.2 10.4 0.00 0.00 0.00 85 1017.5
20260831015705 81 226 7.0 10.4 0.00 0.00 0.00 84 1017.5
20260831014705 81 199 7.8 10.4 0.00 0.00 0.00 83 1017.3
20260831014205 81 212 7.8 13.0 0.00 0.00 0.00 82 1017.5
20260831013705 81 186 8.7 13.0 0.00 0.00 0.00 82 1017.3
20260831013205 81 209 8.7 12.2 0.00 0.00 0.00 81 1017.3
20260831012705 81 199 7.8 11.3 0.00 0.00 0.00 81 1017.3
20260831012205 81 191 8.7 13.9 0.00 0.00 0.00 81 1017.4
20260831011705 81 195 6.1 10.4 0.00 0.00 0.00 80 1017.4
20260831011205 81 191 7.8 13.9 0.00 0.00 0.00 79 1017.4
20260831010705 81 184 7.0 10.4 0.00 0.00 0.00 79 1017.3
20260831005705 81 186 7.0 10.4 0.00 0.00 0.00 79 1017.3
20260831005206 81 178 6.1 11.3 0.00 0.00 0.00 79 1017.3
20260831004705 81 211 8.7 12.2 0.00 0.00 0.00 78 1017.3
20260831004205 81 203 7.0 10.4 0.00 0.00 0.00 78 1017.2
20260831003705 81 201 6.1 10.4 0.00 0.00 0.00 78 1017.2
20260831003205 81 202 7.0 10.4 0.00 0.00 0.00 77 1017.2
20260831002704 81 173 5.2 11.3 0.00 0.00 0.00 77 1017.3
20260831002205 81 223 6.1 10.4 0.00 0.00 0.00 77 1017.3
20260831001205 81 200 7.8 10.4 0.00 0.00 0.00 76 1017.1
20260831000704 81 190 6.1 10.4 0.00 0.00 0.00 77 1017.1
20260831000205 82 196 7.0 10.4 0.00 0.00 0.00 77 1017.1
20260830235704 82 193 5.2 7.8 0.00 0.00 0.00 77 1017.0
20260830234705 82 189 5.2 8.7 0.00 0.00 0.00 76 1017.1
20260830234204 82 196 5.2 8.7 0.00 0.00 0.00 76 1017.0
20260830233204 82 190 5.2 12.2 0.00 0.00 0.00 76 1017.1
20260830232705 82 192 7.8 11.3 0.00 0.00 0.00 76 1017.1
20260830232205 83 290 4.3 7.8 0.00 0.00 0.00 76 1017.1
20260830231204 83 199 5.2 8.7 0.00 0.00 0.00 77 1017.2
20260830230705 83 235 6.1 8.7 0.00 0.00 0.00 77 1017.2
20260830230205 83 190 5.2 7.8 0.00 0.00 0.00 76 1017.1
20260830225705 83 194 5.2 7.0 0.00 0.00 0.00 76 1017.1
20260830225204 83 200 5.2 8.7 0.00 0.00 0.00 76 1017.1
20260830224705 83 209 6.1 10.4 0.00 0.00 0.00 76 1017.0
20260830224205 83 198 5.2 8.7 0.00 0.00 0.00 76 1016.9
20260830223705 83 232 4.3 10.4 0.00 0.00 0.00 75 1016.9
20260830223205 83 211 6.1 10.4 0.00 0.00 0.00 75 1017.1
20260830222205 84 205 5.2 10.4 0.00 0.00 0.00 75 1017.1
20260830221704 84 6 7.0 10.4 0.00 0.00 0.00 75 1017.1
20260830221205 84 337 6.1 10.4 0.00 0.00 0.00 73 1017.2
20260830220705 84 224 7.0 10.4 0.00 0.00 0.00 73 1017.2
20260830220204 84 315 7.8 10.4 0.00 0.00 0.00 72 1017.1
20260830215704 84 184 8.7 12.2 0.00 0.00 0.00 72 1017.0
20260830215204 85 325 7.0 8.7 0.00 0.00 0.00 71 1017.1
20260830214705 85 335 7.0 13.0 0.00 0.00 0.00 70 1016.9
20260830214205 85 3 7.0 11.3 0.00 0.00 0.00 71 1016.9
20260830213705 85 179 5.2 8.7 0.00 0.00 0.00 70 1016.9
20260830213205 86 179 7.0 10.4 0.00 0.00 0.00 70 1016.9
20260830212705 86 225 5.2 8.7 0.00 0.00 0.00 68 1016.9
20260830211705 87 172 6.1 12.2 0.00 0.00 0.00 67 1016.8
20260830210705 87 351 8.7 12.2 0.00 0.00 0.00 64 1016.8
20260830210205 88 228 7.8 11.3 0.00 0.00 0.00 67 1016.8
20260830205204 88 219 7.8 10.4 0.00 0.00 0.00 67 1016.9
20260830204705 87 225 8.7 11.3 0.00 0.00 0.00 67 1016.9
20260830204205 87 215 6.1 7.8 0.00 0.00 0.00 69 1017.0
20260830203705 87 209 5.2 10.4 0.00 0.00 0.00 68 1016.9
20260830203205 87 186 7.8 12.2 0.00 0.00 0.00 68 1017.0
20260830202705 87 203 7.0 11.3 0.00 0.00 0.00 68 1017.0
20260830202204 87 189 5.2 13.9 0.00 0.00 0.00 68 1017.1
20260830201704 87 203 6.1 12.2 0.00 0.00 0.00 66 1017.1
20260830201205 87 181 7.0 12.2 0.00 0.00 0.00 68 1017.1
20260830200705 87 188 6.1 12.2 0.00 0.00 0.00 68 1017.2
20260830200205 87 205 7.0 10.4 0.00 0.00 0.00 68 1017.2
20260830195705 87 198 6.1 10.4 0.00 0.00 0.00 68 1017.2
20260830194704 87 195 5.2 10.4 0.00 0.00 0.00 68 1017.5
20260830194205 87 9 7.8 13.0 0.00 0.00 0.00 68 1017.5
20260830193705 87 173 8.7 13.9 0.00 0.00 0.00 69 1017.5
20260830193205 86 307 7.0 11.3 0.00 0.00 0.00 68 1017.5
20260830192705 86 233 6.1 10.4 0.00 0.00 0.00 69 1017.6
20260830191704 86 163 8.7 12.2 0.00 0.00 0.00 69 1017.8
20260830191205 86 183 7.0 13.0 0.00 0.00 0.00 70 1018.0
20260830190705 86 188 7.8 11.3 0.00 0.00 0.00 68 1018.1
20260830190205 87 225 7.8 10.4 0.00 0.00 0.00 68 1018.3
20260830185704 87 221 7.8 11.3 0.00 0.00 0.00 70 1018.3
20260830185205 87 221 5.2 8.7 0.00 0.00 0.00 68 1018.2
20260830184705 86 183 4.3 10.4 0.00 0.00 0.00 73 1018.2
20260830184205 86 191 7.8 11.3 0.00 0.00 0.00 68 1018.5
20260830183705 86 193 6.1 11.3 0.00 0.00 0.00 69 1018.7
20260830183204 86 193 7.0 12.2 0.00 0.00 0.00 68 1018.8
20260830182705 86 196 6.1 10.4 0.00 0.00 0.00 69 1018.8
20260830182204 87 215 7.8 10.4 0.00 0.00 0.00 68 1018.8
20260830181705 87 188 7.8 13.9 0.00 0.00 0.00 68 1018.8
20260830181205 87 215 5.2 8.7 0.00 0.00 0.00 69 1018.8
20260830180705 87 203 7.0 11.3 0.00 0.00 0.00 65 1018.9
20260830175705 87 217 6.1 10.4 0.00 0.00 0.00 68 1019.0
20260830175205 87 242 7.0 12.2 0.00 0.00 0.00 65 1019.0
20260830174705 87 220 10.4 13.0 0.00 0.00 0.00 70 1019.1
20260830174205 87 218 9.6 13.9 0.00 0.00 0.00 67 1019.2
20260830173705 86 212 8.7 14.8 0.00 0.00 0.00 68 1019.2
20260830173204 86 222 9.6 15.6 0.00 0.00 0.00 70 1019.3
20260830172705 86 168 10.4 13.9 0.00 0.00 0.00 68 1019.5
20260830172205 86 216 10.4 14.8 0.00 0.00 0.00 69 1019.5
20260830171705 86 204 8.7 13.0 0.00 0.00 0.00 69 1019.6
20260830171204 86 218 9.6 13.0 0.00 0.00 0.00 69 1019.7
20260830170204 86 179 8.7 12.2 0.00 0.00 0.00 69 1019.8
20260830165705 86 202 8.7 12.2 0.00 0.00 0.00 68 1019.9
20260830164705 86 228 10.4 13.9 0.00 0.00 0.00 71 1019.9
20260830164205 86 237 8.7 13.0 0.00 0.00 0.00 68 1020.0
20260830163704 86 203 8.7 13.0 0.00 0.00 0.00 69 1020.0
20260830162704 86 220 7.8 13.0 0.00 0.00 0.00 69 1020.1
20260830162204 86 218 8.7 12.2 0.00 0.00 0.00 68 1020.1
20260830161704 86 198 9.6 13.0 0.00 0.00 0.00 74 1020.1
20260830161204 85 213 7.8 13.9 0.00 0.00 0.00 72 1020.0
20260830160704 85 221 10.4 13.9 0.00 0.00 0.00 73 1020.1
20260830160205 85 211 12.2 15.6 0.00 0.00 0.00 73 1020.1
20260830155704 85 204 10.4 15.6 0.00 0.00 0.00 74 1020.1
20260830155204 84 222 10.4 13.9 0.00 0.00 0.00 72 1020.1
20260830154704 85 193 11.3 17.4 0.00 0.00 0.00 74 1020.1
20260830154204 85 190 10.4 12.2 0.00 0.00 0.00 72 1020.1
20260830153704 85 197 8.7 13.9 0.00 0.00 0.00 73 1020.1
20260830153205 85 205 8.7 14.8 0.00 0.00 0.00 73 1020.1
20260830152704 85 214 9.6 13.9 0.00 0.00 0.00 73 1020.1
20260830151704 85 192 10.4 14.8 0.00 0.00 0.00 71 1020.4
20260830151205 85 199 10.4 15.6 0.00 0.00 0.00 73 1020.3
20260830150704 85 209 11.3 13.9 0.00 0.00 0.00 71 1020.2
20260830150204 85 195 10.4 12.2 0.00 0.00 0.00 71 1020.2
20260830145705 85 212 11.3 13.9 0.00 0.00 0.00 73 1020.2
20260830145204 85 212 11.3 17.4 0.00 0.00 0.00 74 1020.3
20260830144705 85 224 9.6 12.2 0.00 0.00 0.00 75 1020.2
20260830144204 84 202 11.3 14.8 0.00 0.00 0.00 75 1020.2
20260830143705 84 215 10.4 13.9 0.00 0.00 0.00 75 1020.2
20260830142705 83 222 11.3 14.8 0.00 0.00 0.00 75 1020.3
20260830142204 83 224 12.2 17.4 0.00 0.00 0.00 75 1020.4
20260830141704 82 221 13.0 17.4 0.00 0.00 0.00 77 1020.5
20260830140704 82 200 10.4 12.2 0.00 0.00 0.00 77 1020.5
20260830140204 82 209 8.7 12.2 0.00 0.00 0.00 77 1020.6
20260830135705 82 210 9.6 12.2 0.00 0.00 0.00 77 1020.6
20260830135204 82 213 10.4 13.9 0.00 0.00 0.00 77 1020.6
20260830134704 82 209 9.6 14.8 0.00 0.00 0.00 78 1020.6
20260830134204 82 212 9.6 13.9 0.00 0.00 0.00 79 1020.8
20260830133705 81 221 9.6 13.0 0.00 0.00 0.00 79 1020.8
20260830132704 82 184 7.0 10.4 0.00 0.00 0.00 79 1020.9
20260830132204 82 202 6.1 10.4 0.00 0.00 0.00 79 1020.9
20260830131705 81 164 6.1 10.4 0.00 0.00 0.00 81 1021.0
20260830131204 81 214 6.1 10.4 0.00 0.00 0.00 80 1021.0
20260830130704 80 201 6.1 8.7 0.00 0.00 0.00 81 1021.1
20260830130205 80 193 5.2 8.7 0.00 0.00 0.00 81 1021.1
20260830125705 80 198 5.2 10.4 0.00 0.00 0.00 82 1021.1
20260830125204 79 186 5.2 10.4 0.00 0.00 0.00 83 1021.0
20260830123704 78 202 5.2 8.7 0.00 0.00 0.00 84 1021.2
20260830123205 78 208 6.1 10.4 0.00 0.00 0.00 84 1021.2
20260830122705 78 167 6.1 10.4 0.00 0.00 0.00 86 1021.3
20260830121704 77 194 4.3 7.8 0.00 0.00 0.00 86 1021.3
20260830121204 77 190 4.3 8.7 0.00 0.00 0.00 88 1021.4
20260830120204 76 199 5.2 7.8 0.00 0.00 0.00 90 1021.4
20260830115705 75 195 4.3 7.0 0.00 0.00 0.00 91 1021.4
20260830115204 75 190 2.6 5.2 0.00 0.00 0.00 91 1021.3
20260830114704 74 192 4.3 7.0 0.00 0.00 0.00 92 1021.3
20260830114205 74 164 2.6 4.3 0.00 0.00 0.00 91 1021.3
20260830113705 74 185 2.6 6.1 0.00 0.00 0.00 91 1021.3
20260830113204 74 173 3.5 5.2 0.00 0.00 0.00 91 1021.3
20260830112704 74 180 3.5 6.1 0.00 0.00 0.00 91 1021.4
20260830112204 74 188 2.6 7.0 0.00 0.00 0.00 91 1021.5
20260830111705 73 174 1.7 4.3 0.00 0.00 0.00 91 1021.4
20260830111204 73 200 1.7 5.2 0.00 0.00 0.00 91 1021.4